Find GPS III SV06

NORAD ID: 55268 Int'l Des: 2023-009 Owner: SFSSC Country: US Constellation: GPS operational
MEOCIRCULARGNSS

Current View

Loading 3D Globe...

About GPS III SV06

GPS III SV06 (NORAD 55268) is a GPS constellation satellite launched Jan 18, 2023 by SFSSC of US. It operates in MEO, CIRCULAR, GNSS orbit with a mass of 4352.00 kg.

About GPS III SV06

Description loading...

Upcoming Passes

Passes for default location (London). Set your location on the main map for personalized predictions.

Altitude History

Loading altitude history...

Two-Line Element Set

1 55268U 23009A 26163.12704838 .00000093 00000-0 00000-0 0 9993
2 55268 55.1221 148.7180 0006256 318.0841 154.7932 2.00571739 25144
Epoch: Jun 12, 2026 • Age: 86 hours

Current Status

Altitude 20193.4 km
Velocity 3.87 km/s
Sub-Earth Point -12.19°S, 170.22°E
Launch Date Jan 18, 2023
Age 3.4 years
Type navigation

Technical Details

Classification Payload
Mass 4352.00 kg
Dry Mass 2160.00 kg
Total Mass 4352.00 kg
Length 3.40 m
Diameter 1.80 m
Span 14.00 m
Shape Box + 2 pan
Manufacturer LMSSD
Bus Type A2100
Phase Status In Orbit
Owner/State SFSSC/US

Most Searched